Rbgn^[z[y[W
メイン
   新天体発見情報
     Comet C/2025 D5 (PANSTARRS)
投稿するにはまず登録を

スレッド表示 | 新しいものから 前のトピック | 次のトピック | 下へ
投稿者 スレッド
佐藤裕久
投稿日時: 2025-3-18 15:29
モデレータ
登録日: 2005-6-12
居住地: 日本
投稿: 2608
オンライン
Comet C/2025 D5 (PANSTARRS)

R. Weryk (西オンタリオ大学,物理および天文学科)の通報によると、2月28日、Haleakala
にあるPan-STARRS2 1.8-m Ritchey-Chretien反射望遠鏡で得た画像から彗星を発見した。
1".3のシーイングで得た、4枚の45-秒w-バンドサーベイ画像は、非常に集光した2".1 (半
値全幅:FWHM)の頭部が見え、p.a. 350°に6" のまっすぐな尾がある。
WerykとR. Wainscoatが、3月1.44日UT、Maunaeaにある3.6-m Canada-France-Hawaii望遠鏡
で、0".9のシーイングで得た3枚の60-秒のgri-バンドフォローアップ画像では、非常に集光
した1".2(FWHM)の頭部が見え、p.a. 340°に約4"の尾がある。
3月4.5日、0".6-0".7のシーイングで得た3枚の60-秒のgri-バンドCFHT追加画像は、非常に
集光した0".9-1".0 (FWHM)の頭部が見え、p.a. 340°に約4"の尾がある。
Werykが小惑星センターのPCCP webpageに移動した後、佐藤英貴氏(東京都文京区)は、3月
1.7日、60-秒CCD露出24枚のスタック, 0.51-m f/6.8 アストログラフ, Siding Spring, NSW,
オーストラリア, 遠隔操作:強く集光した8"のコマが見えるが、尾はない。4".9の円形範囲で
測定した光度は20.2 等であった。

彗星機能の報告は次のとおり、

OC   Date        Reporter            Coma    Tail   PA   Comet     Date
                                                        (T/P)   Reported
F52  2025-02-28  R. Weryk            0".9      6"  350    T   2025-02-28.62
T14  2025-03-01  R. Weryk            0".3      4"  340    T   2025-03-01.51
T14  2025-03-04  R. Weryk            0".3      4"  340    T   2025-03-04.55

発見位置は次のとおり(PCCP P227rjs)、

     2025 UT             R.A. (2000) Decl.       Mag.
     Feb. 28.54313   13 01 47.50   - 2 24 04.0   20.6
          28.55398   13 01 45.96   - 2 24 20.9   20.6
          28.57571   13 01 42.84   - 2 24 54.4   21.0
          28.63764   13 01 33.93   - 2 26 31.2   21.9
          28.63845   13 01 33.80   - 2 26 32.7   22.2

MPCの楕円軌道要素、位置推算表は次のとおり、

Orbital elements:
    C/2025 D5 (PANSTARRS)                                                       
Epoch 2025 May 5.0 TT = JDT 2460800.5                                           
T 2025 May 13.30401 TT                                  Veres                   
q   2.0118306            (2000.0)            P               Q                  
z  +0.0011969      Peri.  211.49359     -0.85070872     +0.52549362             
 +/-0.0002166      Node     0.73517     +0.05179810     +0.10708241             
e   0.9975920      Incl.   73.35741     -0.52307899     -0.84403188             
From 22 observations 2025 Feb. 20-Mar. 4, mean residual 0".5.                   
                                                                                
Ephemeris:
Date    TT    R. A. (2000) Decl.     Delta      r    Elong.  Phase   m1
2025 02 03    13 38 49.4 +06 27 35   1.7711  2.3358   112.7    22.9  22.5
...
2025 02 18    13 22 17.2 +01 45 08   1.4834  2.2516   130.2    19.6  22.0
...
2025 02 26    13 07 30.1 -01 19 39   1.3524  2.2108   140.9    16.4  21.7
...
2025 03 04    12 53 13.4 -03 55 46   1.2691  2.1823   149.5    13.3  21.5
2025 03 05    12 50 34.1 -04 23 11   1.2567  2.1778   151.0    12.8  21.5
2025 03 06    12 47 50.2 -04 50 58   1.2448  2.1732   152.4    12.2  21.4
...
2025 03 12    12 29 51.7 -07 44 20   1.1834  2.1473   161.0     8.7  21.3
...
2025 03 20    12 02 12.6 -11 44 49   1.1318  2.1158   167.9     5.7  21.1
...
2025 04 04    11 05 25.0 -18 38 00   1.1352  2.0672   150.9    13.6  21.0

(MPEC 2025-E99、CBET 5519)

スレッド表示 | 新しいものから 前のトピック | 次のトピック | トップ

投稿するにはまず登録を
 
© 1999 Tsutomu Seki.